Find Starlink 6055

NORAD ID: 56467 Int'l Des: 2023-064 Owner: SPXS Country: US Constellation: starlink operational
LEOCIRCULAR

当前视图

正在加载3D地球...

About Starlink 6055

Starlink 6055 (NORAD 56467) is a starlink constellation satellite (v1.5) launched May 10, 2023 by SPXS of US. It operates in LEO, CIRCULAR orbit with a mass of 305.00 kg.

即将过境

Passes for default location (London). Set your location on the main map for personalized predictions.

高度历史

Loading altitude history...

两行轨道根数

1 56467U 23064V 26263.58335648 .00049412 00000-0 32610-2 0 9998
2 56467 70.0015 353.0154 0003463 298.2044 66.4116 15.07178522 5714
Epoch: Sep 20, 2026 • Age: 11 hours

当前状态

高度 558.4 km
远地点 / 近地点 N/A
速度 7.58 km/s
星下点 -43.05°S, 41.71°W
发射日期 May 10, 2023
运行时间 3.3 years
类型 internet

技术详情

分类 Payload
质量 305.00 kg
干质量 290.00 kg
长度 0.20 m
跨度 9.00 m
形状 ? Box + pan
制造商 SPXS
平台类型 Starlink
阶段状态 In Orbit
所有者/国家 SPXS/US

Most Searched